Location: Unspecified
(0.0000°N, 0.0000°E)
Time: 07:35:22
(UTC+00:00)

NIMBUS 2 DEB - Pass Details

Date: 20 December 2025
Orbit: 956 x 1029 km, 100.4° (Epoch: 13 January)

Event Time Altitude Azimuth Distance (km) Brightness Sun altitude
Rises 03:28:52 0° 177° (S) 3,650 ? -33.7°
Reaches altitude 10° 03:31:23 10° 183° (S) 2,709 ? -33.1°
Enters shadow 03:34:23 29° 199° (SSW) 1,705 ? -32.4°
